Terug naar catalogus

STARLINK-11386

ActiefCommunicatieVLEO
NORAD 62098·PAYLOAD·🇺🇸 United States

Gelanceerd Nov 25, 2024 vanaf Cape Canaveral Space Force Station

Loading…

Volgende Passages (komende 24 uur)

TLE

VersSource: CelesTrak SupGP

Epoch: Sep 15, 2026, 02:09 UTC

1 62098C 24220L   26258.09006944 -.00044758  00000+0 -34770-3 0  2581
2 62098  43.0003 341.0563 0001525 272.7207 140.3762 15.70856178    11

Volg STARLINK-11386 in realtime met AllMySat

Download on the App Store